Time,TemperatureF,DewpointF,PressureIn,WindDirection,WindDirectionDegrees,WindSpeedMPH,WindSpeedGustMPH,Humidity,HourlyPrecipIn,Conditions,Clouds,dailyrainin,SoftwareType,DateUTC
2014-01-19 00:01:00,37.3,16.3,29.99,SSW,197,2.0,2.0,42,0.00,BKN,,0.00,WeatherDisplay:10.37,2014-01-19 05:01:00,
2014-01-19 00:02:00,37.3,16.3,29.99,SSW,197,2.3,0.0,42,0.00,OVC,,0.00,WeatherDisplay:10.37,2014-01-19 05:02:00,
2014-01-19 00:07:00,37.4,15.8,29.99,SSE,167,4.6,4.6,41,0.00,OVC,,0.00,WeatherDisplay:10.37,2014-01-19 05:07:00,
2014-01-19 00:12:00,37.6,16.5,29.99,SW,218,3.5,3.5,42,0.00,OVC,,0.00,WeatherDisplay:10.37,2014-01-19 05:12:00,
2014-01-19 00:17:00,37.7,16.6,29.99,SSW,193,3.5,3.5,42,0.00,OVC,,0.00,WeatherDisplay:10.37,2014-01-19 05:17:00,
2014-01-19 00:22:00,37.9,16.3,29.99,SSW,192,1.2,1.2,41,0.00,OVC,,0.00,WeatherDisplay:10.37,2014-01-19 05:22:00,
2014-01-19 00:27:00,38.0,16.9,29.98,South,190,3.5,3.5,42,0.00,OVC,,0.00,WeatherDisplay:10.37,2014-01-19 05:27:00,
2014-01-19 00:32:00,38.2,16.5,29.98,SSE,163,5.8,5.8,41,0.00,OVC,,0.00,WeatherDisplay:10.37,2014-01-19 05:32:00,
2014-01-19 00:37:00,38.4,17.3,29.98,SSW,196,4.0,4.0,42,0.00,OVC,,0.00,WeatherDisplay:10.37,2014-01-19 05:37:00,
2014-01-19 00:42:00,38.6,16.9,29.98,SSW,196,3.5,3.5,41,0.00,OVC,,0.00,WeatherDisplay:10.37,2014-01-19 05:42:00,
2014-01-19 00:47:00,38.7,17.0,29.97,SE,144,2.3,2.3,41,0.00,OVC,,0.00,WeatherDisplay:10.37,2014-01-19 05:47:00,
2014-01-19 00:52:00,38.8,17.1,29.97,SSW,210,3.0,3.0,41,0.00,OVC,,0.00,WeatherDisplay:10.37,2014-01-19 05:52:00,
2014-01-19 00:57:00,38.9,17.2,29.97,SW,216,3.0,3.0,41,0.00,OVC,,0.00,WeatherDisplay:10.37,2014-01-19 05:57:00,
2014-01-19 01:02:00,38.9,17.7,29.97,SW,231,4.6,4.6,42,0.00,OVC,,0.00,WeatherDisplay:10.37,2014-01-19 06:02:00,
2014-01-19 01:07:00,39.0,17.3,29.96,SSW,192,6.9,6.9,41,0.00,OVC,,0.00,WeatherDisplay:10.37,2014-01-19 06:07:00,
2014-01-19 01:12:00,39.1,17.4,29.96,WSW,238,4.0,4.0,41,0.00,BKN,,0.00,WeatherDisplay:10.37,2014-01-19 06:12:00,
2014-01-19 01:17:00,39.1,17.9,29.96,SW,219,3.5,3.5,42,0.00,BKN,,0.00,WeatherDisplay:10.37,2014-01-19 06:17:00,
2014-01-19 01:22:00,39.2,18.0,29.96,SW,232,2.3,2.3,42,0.00,BKN,,0.00,WeatherDisplay:10.37,2014-01-19 06:22:00,
2014-01-19 01:27:00,39.2,18.0,29.96,SW,232,3.5,3.5,42,0.00,BKN,,0.00,WeatherDisplay:10.37,2014-01-19 06:27:00,
2014-01-19 01:32:00,39.3,18.1,29.96,WSW,253,6.9,6.9,42,0.00,BKN,,0.00,WeatherDisplay:10.37,2014-01-19 06:32:00,
2014-01-19 01:37:00,39.3,18.1,29.96,SW,236,1.2,1.2,42,0.00,BKN,,0.00,WeatherDisplay:10.37,2014-01-19 06:37:00,
2014-01-19 01:42:00,39.3,18.1,29.96,SW,229,2.3,2.3,42,0.00,BKN,,0.00,WeatherDisplay:10.37,2014-01-19 06:42:00,
2014-01-19 01:47:00,39.4,18.2,29.96,SSW,213,1.2,1.2,42,0.00,BKN,,0.00,WeatherDisplay:10.37,2014-01-19 06:47:00,
2014-01-19 01:52:00,39.4,18.7,29.96,SSW,213,3.5,3.5,43,0.00,BKN,,0.00,WeatherDisplay:10.37,2014-01-19 06:52:00,
2014-01-19 01:57:00,39.5,18.8,29.96,SSE,157,3.5,3.5,43,0.00,BKN,,0.00,WeatherDisplay:10.37,2014-01-19 06:57:00,
2014-01-19 02:02:00,39.6,18.9,29.96,SW,225,3.5,3.5,43,0.00,BKN,,0.00,WeatherDisplay:10.37,2014-01-19 07:02:00,
2014-01-19 02:07:00,39.6,18.9,29.96,SW,227,3.0,3.0,43,0.00,BKN,,0.00,WeatherDisplay:10.37,2014-01-19 07:07:00,
2014-01-19 02:12:00,39.7,19.0,29.96,South,169,2.0,2.0,43,0.00,CLR,,0.00,WeatherDisplay:10.37,2014-01-19 07:12:00,
2014-01-19 02:17:00,39.7,19.5,29.96,SSW,198,3.5,3.5,44,0.00,CLR,,0.00,WeatherDisplay:10.37,2014-01-19 07:17:00,
2014-01-19 02:22:00,39.8,19.6,29.96,South,184,1.2,2.1,44,0.00,CLR,,0.00,WeatherDisplay:10.37,2014-01-19 07:22:00,
2014-01-19 02:27:00,39.8,19.6,29.96,SSW,194,0.0,0.2,44,0.00,CLR,,0.00,WeatherDisplay:10.37,2014-01-19 07:27:00,
2014-01-19 02:32:00,39.9,19.7,29.96,SW,230,1.2,1.2,44,0.00,CLR,,0.00,WeatherDisplay:10.37,2014-01-19 07:32:00,
2014-01-19 02:37:00,39.9,19.7,29.96,SW,230,1.2,1.2,44,0.00,CLR,,0.00,WeatherDisplay:10.37,2014-01-19 07:37:00,
2014-01-19 02:42:00,39.9,19.7,29.96,SSW,196,1.2,0.0,44,0.00,CLR,,0.00,WeatherDisplay:10.37,2014-01-19 07:42:00,
2014-01-19 02:47:00,39.9,20.3,29.96,SW,225,1.0,1.0,45,0.00,CLR,,0.00,WeatherDisplay:10.37,2014-01-19 07:47:00,
2014-01-19 02:52:00,39.8,19.6,29.96,SW,217,0.0,0.0,44,0.00,CLR,,0.00,WeatherDisplay:10.37,2014-01-19 07:52:00,
2014-01-19 02:57:00,39.8,20.2,29.96,SW,217,0.0,0.0,45,0.00,CLR,,0.00,WeatherDisplay:10.37,2014-01-19 07:57:00,
2014-01-19 03:02:00,39.8,20.2,29.96,SW,217,0.0,0.0,45,0.00,CLR,,0.00,WeatherDisplay:10.37,2014-01-19 08:02:00,
2014-01-19 03:07:00,39.7,20.1,29.96,SW,217,0.0,0.0,45,0.00,CLR,,0.00,WeatherDisplay:10.37,2014-01-19 08:07:00,
2014-01-19 03:12:00,39.7,20.6,29.97,SW,217,0.0,0.0,46,0.00,BKN,,0.00,WeatherDisplay:10.37,2014-01-19 08:12:00,
2014-01-19 03:17:00,39.6,21.0,29.96,WSW,250,5.0,5.0,47,0.00,BKN,,0.00,WeatherDisplay:10.37,2014-01-19 08:17:00,
2014-01-19 03:22:00,39.5,20.9,29.97,SSW,209,0.0,0.0,47,0.00,BKN,,0.00,WeatherDisplay:10.37,2014-01-19 08:22:00,
2014-01-19 03:27:00,39.5,21.4,29.96,SSW,209,0.0,0.0,48,0.00,BKN,,0.00,WeatherDisplay:10.37,2014-01-19 08:27:00,
2014-01-19 03:32:00,39.4,21.3,29.97,SSW,209,0.0,0.0,48,0.00,BKN,,0.00,WeatherDisplay:10.37,2014-01-19 08:32:00,
2014-01-19 03:37:00,39.3,21.2,29.97,SSW,209,0.0,0.0,48,0.00,BKN,,0.00,WeatherDisplay:10.37,2014-01-19 08:37:00,
2014-01-19 03:42:00,39.2,21.1,29.97,South,188,1.2,0.0,48,0.00,BKN,,0.00,WeatherDisplay:10.37,2014-01-19 08:42:00,
2014-01-19 03:47:00,39.2,22.1,29.97,South,188,0.0,0.0,50,0.00,BKN,,0.00,WeatherDisplay:10.37,2014-01-19 08:47:00,
2014-01-19 03:52:00,39.0,21.4,29.97,South,188,1.0,1.0,49,0.00,BKN,,0.00,WeatherDisplay:10.37,2014-01-19 08:52:00,
2014-01-19 03:57:00,38.8,21.3,29.97,SW,221,1.2,0.0,49,0.00,BKN,,0.00,WeatherDisplay:10.37,2014-01-19 08:57:00,
2014-01-19 04:02:00,38.6,21.5,29.97,SW,221,0.0,0.0,50,0.00,BKN,,0.00,WeatherDisplay:10.37,2014-01-19 09:02:00,
2014-01-19 04:07:00,38.5,21.5,29.97,SW,221,0.0,0.0,50,0.00,BKN,,0.00,WeatherDisplay:10.37,2014-01-19 09:07:00,
2014-01-19 04:12:00,38.5,21.9,29.97,South,186,3.5,0.0,51,0.00,BKN,,0.00,WeatherDisplay:10.37,2014-01-19 09:12:00,
2014-01-19 04:17:00,38.5,22.4,29.96,SW,232,2.3,2.3,52,0.00,BKN,,0.00,WeatherDisplay:10.37,2014-01-19 09:17:00,
2014-01-19 04:22:00,38.7,23.0,29.96,SW,226,1.2,1.6,53,0.00,BKN,,0.00,WeatherDisplay:10.37,2014-01-19 09:22:00,
2014-01-19 04:27:00,38.8,23.6,29.96,WSW,253,1.2,1.2,54,0.00,BKN,,0.00,WeatherDisplay:10.37,2014-01-19 09:27:00,
2014-01-19 04:32:00,39.0,24.2,29.96,SSW,193,3.0,3.0,55,0.00,BKN,,0.00,WeatherDisplay:10.37,2014-01-19 09:32:00,
2014-01-19 04:37:00,39.1,24.3,29.96,SSW,209,3.0,3.0,55,0.00,BKN,,0.00,WeatherDisplay:10.37,2014-01-19 09:37:00,
2014-01-19 04:42:00,39.2,24.4,29.96,SW,221,2.0,0.0,55,0.00,BKN,,0.00,WeatherDisplay:10.37,2014-01-19 09:42:00,
2014-01-19 04:47:00,39.2,24.4,29.96,SW,236,1.2,1.2,55,0.00,BKN,,0.00,WeatherDisplay:10.37,2014-01-19 09:47:00,
2014-01-19 04:52:00,39.2,24.8,29.97,SW,228,2.3,2.3,56,0.00,BKN,,0.00,WeatherDisplay:10.37,2014-01-19 09:52:00,
2014-01-19 04:57:00,39.3,24.9,29.97,WSW,240,2.3,2.3,56,0.00,BKN,,0.00,WeatherDisplay:10.37,2014-01-19 09:57:00,
2014-01-19 05:02:00,39.2,24.8,29.97,WSW,248,5.8,5.8,56,0.00,CLR,,0.00,WeatherDisplay:10.37,2014-01-19 10:02:00,
2014-01-19 05:07:00,39.1,24.7,29.97,WSW,248,1.2,0.0,56,0.00,CLR,,0.00,WeatherDisplay:10.37,2014-01-19 10:07:00,
2014-01-19 05:12:00,39.1,24.7,29.97,SW,216,1.2,1.2,56,0.00,CLR,,0.00,WeatherDisplay:10.37,2014-01-19 10:12:00,
2014-01-19 05:17:00,39.0,24.6,29.97,WSW,254,1.2,0.0,56,0.00,CLR,,0.00,WeatherDisplay:10.37,2014-01-19 10:17:00,
2014-01-19 05:22:00,39.0,24.6,29.97,WSW,246,2.3,2.3,56,0.00,CLR,,0.00,WeatherDisplay:10.37,2014-01-19 10:22:00,
2014-01-19 05:27:00,38.9,24.9,29.98,SW,232,3.5,3.5,57,0.00,CLR,,0.00,WeatherDisplay:10.37,2014-01-19 10:27:00,
2014-01-19 05:32:00,38.8,25.3,29.97,SW,233,2.3,2.3,58,0.00,CLR,,0.00,WeatherDisplay:10.37,2014-01-19 10:32:00,
2014-01-19 05:37:00,38.7,25.2,29.97,WSW,241,5.8,5.8,58,0.00,CLR,,0.00,WeatherDisplay:10.37,2014-01-19 10:37:00,
2014-01-19 05:42:00,38.5,25.4,29.97,SW,229,3.5,3.5,59,0.00,CLR,,0.00,WeatherDisplay:10.37,2014-01-19 10:42:00,
2014-01-19 05:47:00,38.4,25.3,29.97,SW,232,2.3,2.3,59,0.00,CLR,,0.00,WeatherDisplay:10.37,2014-01-19 10:47:00,
2014-01-19 05:52:00,38.3,25.2,29.97,SW,216,3.5,3.5,59,0.00,CLR,,0.00,WeatherDisplay:10.37,2014-01-19 10:52:00,
2014-01-19 05:57:00,38.2,25.1,29.97,SW,216,2.3,2.3,59,0.00,CLR,,0.00,WeatherDisplay:10.37,2014-01-19 10:57:00,
2014-01-19 06:02:00,38.2,25.1,29.98,SW,219,3.5,3.5,59,0.00,CLR,,0.00,WeatherDisplay:10.37,2014-01-19 11:02:00,
2014-01-19 06:07:00,38.0,25.3,29.98,SW,232,3.0,3.0,60,0.00,CLR,,0.00,WeatherDisplay:10.37,2014-01-19 11:07:00,
2014-01-19 06:12:00,37.9,25.2,29.97,SSW,209,3.0,3.0,60,0.00,CLR,,0.00,WeatherDisplay:10.37,2014-01-19 11:12:00,
2014-01-19 06:17:00,37.8,25.1,29.98,SW,225,2.3,2.3,60,0.00,CLR,,0.00,WeatherDisplay:10.37,2014-01-19 11:17:00,
2014-01-19 06:22:00,37.7,25.5,29.98,SW,224,1.2,1.2,61,0.00,CLR,,0.00,WeatherDisplay:10.37,2014-01-19 11:22:00,
2014-01-19 06:27:00,37.6,25.4,29.98,SW,223,2.3,2.3,61,0.00,CLR,,0.00,WeatherDisplay:10.37,2014-01-19 11:27:00,
2014-01-19 06:32:00,37.5,25.7,29.98,SW,226,1.2,1.2,62,0.00,CLR,,0.00,WeatherDisplay:10.37,2014-01-19 11:32:00,
2014-01-19 06:37:00,37.4,25.6,29.98,SW,224,2.3,2.3,62,0.00,CLR,,0.00,WeatherDisplay:10.37,2014-01-19 11:37:00,
2014-01-19 06:42:00,37.3,25.8,29.98,SSW,212,3.5,3.5,63,0.00,CLR,,0.00,WeatherDisplay:10.37,2014-01-19 11:42:00,
2014-01-19 06:47:00,37.1,26.0,29.99,SW,228,2.3,2.3,64,0.00,CLR,,0.00,WeatherDisplay:10.37,2014-01-19 11:47:00,
2014-01-19 06:52:00,37.0,25.9,29.99,SW,229,3.5,3.5,64,0.00,CLR,,0.00,WeatherDisplay:10.37,2014-01-19 11:52:00,
2014-01-19 06:57:00,36.9,25.9,29.99,SW,215,4.0,4.0,64,0.00,CLR,,0.00,WeatherDisplay:10.37,2014-01-19 11:57:00,
2014-01-19 07:02:00,36.8,26.1,29.99,WSW,255,3.5,3.5,65,0.00,CLR,,0.00,WeatherDisplay:10.37,2014-01-19 12:02:00,
2014-01-19 07:07:00,36.7,26.0,29.99,SW,229,3.5,3.5,65,0.00,CLR,,0.00,WeatherDisplay:10.37,2014-01-19 12:07:00,
2014-01-19 07:12:00,36.6,26.3,29.99,SW,224,4.6,4.6,66,0.00,CLR,,0.00,WeatherDisplay:10.37,2014-01-19 12:12:00,
2014-01-19 07:18:00,36.5,26.2,29.99,SW,230,3.5,3.5,66,0.00,CLR,,0.00,WeatherDisplay:10.37,2014-01-19 12:18:00,
2014-01-19 07:23:00,36.4,26.1,30.00,SW,236,3.5,3.5,66,0.00,CLR,,0.00,WeatherDisplay:10.37,2014-01-19 12:23:00,
2014-01-19 07:28:00,36.4,26.1,30.00,SW,229,3.0,3.0,66,0.00,CLR,,0.00,WeatherDisplay:10.37,2014-01-19 12:28:00,
2014-01-19 07:33:00,36.4,26.5,30.00,SW,222,3.5,3.5,67,0.00,CLR,,0.00,WeatherDisplay:10.37,2014-01-19 12:33:00,
2014-01-19 07:38:00,36.3,26.4,30.00,SW,224,2.3,2.3,67,0.00,CLR,,0.00,WeatherDisplay:10.37,2014-01-19 12:38:00,
2014-01-19 07:43:00,36.2,26.3,30.00,SW,228,3.5,3.5,67,0.00,CLR,,0.00,WeatherDisplay:10.37,2014-01-19 12:43:00,
2014-01-19 07:48:00,36.1,26.2,30.00,SW,219,1.2,1.2,67,0.00,CLR,,0.00,WeatherDisplay:10.37,2014-01-19 12:48:00,
2014-01-19 07:53:00,36.1,26.6,30.01,SW,221,2.0,2.0,68,0.00,CLR,,0.00,WeatherDisplay:10.37,2014-01-19 12:53:00,
2014-01-19 07:58:00,36.1,26.6,30.01,WSW,245,1.2,1.2,68,0.00,CLR,,0.00,WeatherDisplay:10.37,2014-01-19 12:58:00,
2014-01-19 08:03:00,36.0,26.5,30.01,SW,231,2.3,2.3,68,0.00,CLR,,0.00,WeatherDisplay:10.37,2014-01-19 13:03:00,
2014-01-19 08:08:00,36.0,26.8,30.01,SW,230,1.2,1.2,69,0.00,CLR,,0.00,WeatherDisplay:10.37,2014-01-19 13:08:00,
2014-01-19 08:13:00,36.0,26.8,30.01,SW,233,3.5,3.5,69,0.00,FEW,,0.00,WeatherDisplay:10.37,2014-01-19 13:13:00,
2014-01-19 08:18:00,36.1,26.9,30.01,WSW,249,3.5,3.5,69,0.00,FEW,,0.00,WeatherDisplay:10.37,2014-01-19 13:18:00,
2014-01-19 08:23:00,36.2,27.0,30.02,West,274,4.0,4.0,69,0.00,FEW,,0.00,WeatherDisplay:10.37,2014-01-19 13:23:00,
2014-01-19 08:28:00,36.5,27.3,30.02,SW,221,5.8,5.8,69,0.00,FEW,,0.00,WeatherDisplay:10.37,2014-01-19 13:28:00,
2014-01-19 08:33:00,36.8,27.6,30.02,SW,219,5.8,5.8,69,0.00,FEW,,0.00,WeatherDisplay:10.37,2014-01-19 13:33:00,
2014-01-19 08:38:00,37.2,27.6,30.02,WSW,244,6.9,6.9,68,0.00,FEW,,0.00,WeatherDisplay:10.37,2014-01-19 13:38:00,
2014-01-19 08:43:00,37.5,27.9,30.02,West,269,3.5,3.5,68,0.00,FEW,,0.00,WeatherDisplay:10.37,2014-01-19 13:43:00,
2014-01-19 08:48:00,37.9,27.9,30.02,WSW,257,5.8,5.8,67,0.00,FEW,,0.00,WeatherDisplay:10.37,2014-01-19 13:48:00,
2014-01-19 08:53:00,38.3,27.9,30.02,WSW,256,5.8,5.8,66,0.00,FEW,,0.00,WeatherDisplay:10.37,2014-01-19 13:53:00,
2014-01-19 08:58:00,38.6,28.2,30.02,WNW,286,6.9,6.9,66,0.00,FEW,,0.00,WeatherDisplay:10.37,2014-01-19 13:58:00,
2014-01-19 09:03:00,39.0,28.2,30.02,NW,315,3.5,3.5,65,0.00,FEW,,0.00,WeatherDisplay:10.37,2014-01-19 14:03:00,
2014-01-19 09:08:00,39.4,28.2,30.02,South,182,9.2,9.2,64,0.00,FEW,,0.00,WeatherDisplay:10.37,2014-01-19 14:08:00,
2014-01-19 09:13:00,39.7,28.5,30.03,West,262,5.8,5.8,64,0.00,CLR,,0.00,WeatherDisplay:10.37,2014-01-19 14:13:00,
2014-01-19 09:18:00,40.0,28.4,30.03,West,273,2.3,2.3,63,0.00,CLR,,0.00,WeatherDisplay:10.37,2014-01-19 14:18:00,
2014-01-19 09:23:00,40.3,28.7,30.03,WNW,300,5.8,5.8,63,0.00,CLR,,0.00,WeatherDisplay:10.37,2014-01-19 14:23:00,
2014-01-19 09:28:00,40.6,28.6,30.04,NW,316,3.5,3.5,62,0.00,CLR,,0.00,WeatherDisplay:10.37,2014-01-19 14:28:00,
2014-01-19 09:33:00,40.9,28.9,30.04,WNW,283,6.9,6.9,62,0.00,CLR,,0.00,WeatherDisplay:10.37,2014-01-19 14:33:00,
2014-01-19 09:38:00,41.3,28.9,30.04,West,265,5.0,5.0,61,0.00,CLR,,0.00,WeatherDisplay:10.37,2014-01-19 14:38:00,
2014-01-19 09:43:00,41.6,28.7,30.05,NW,324,4.6,4.6,60,0.00,CLR,,0.00,WeatherDisplay:10.37,2014-01-19 14:43:00,
2014-01-19 09:48:00,42.0,29.1,30.05,WNW,283,7.0,7.0,60,0.00,CLR,,0.00,WeatherDisplay:10.37,2014-01-19 14:48:00,
2014-01-19 09:53:00,42.3,29.0,30.05,SSW,200,8.1,8.1,59,0.00,CLR,,0.00,WeatherDisplay:10.37,2014-01-19 14:53:00,
2014-01-19 09:58:00,42.6,28.4,30.06,West,278,3.5,3.5,57,0.00,CLR,,0.00,WeatherDisplay:10.37,2014-01-19 14:58:00,
2014-01-19 10:03:00,42.8,28.6,30.06,NNW,338,5.8,5.8,57,0.00,CLR,,0.00,WeatherDisplay:10.37,2014-01-19 15:03:00,
2014-01-19 10:08:00,43.3,28.6,30.06,WNW,284,6.9,6.9,56,0.00,CLR,,0.00,WeatherDisplay:10.37,2014-01-19 15:08:00,
2014-01-19 10:13:00,44.1,28.9,30.06,NNE,19,8.1,8.1,55,0.00,CLR,,0.00,WeatherDisplay:10.37,2014-01-19 15:13:00,
2014-01-19 10:18:00,44.7,29.1,30.06,WNW,296,5.8,5.8,54,0.00,CLR,,0.00,WeatherDisplay:10.37,2014-01-19 15:18:00,
2014-01-19 10:23:00,45.2,29.1,30.07,NW,319,6.0,6.0,53,0.00,CLR,,0.00,WeatherDisplay:10.37,2014-01-19 15:23:00,
2014-01-19 10:28:00,45.8,29.2,30.07,South,173,8.1,8.1,52,0.00,CLR,,0.00,WeatherDisplay:10.37,2014-01-19 15:28:00,
2014-01-19 10:33:00,45.8,29.2,30.07,West,271,3.5,3.5,52,0.00,CLR,,0.00,WeatherDisplay:10.37,2014-01-19 15:33:00,
2014-01-19 10:38:00,45.9,28.8,30.07,NW,323,6.0,6.0,51,0.00,CLR,,0.00,WeatherDisplay:10.37,2014-01-19 15:38:00,
2014-01-19 10:43:00,46.0,28.9,30.07,NW,319,9.2,9.2,51,0.00,CLR,,0.00,WeatherDisplay:10.37,2014-01-19 15:43:00,
2014-01-19 10:48:00,46.4,29.2,30.08,NW,304,6.9,6.9,51,0.00,CLR,,0.00,WeatherDisplay:10.37,2014-01-19 15:48:00,
2014-01-19 10:53:00,46.7,29.0,30.08,North,350,4.6,4.6,50,0.00,CLR,,0.00,WeatherDisplay:10.37,2014-01-19 15:53:00,
2014-01-19 10:58:00,46.9,29.7,30.08,NW,324,3.5,3.5,51,0.00,CLR,,0.00,WeatherDisplay:10.37,2014-01-19 15:58:00,
2014-01-19 11:03:00,47.0,29.8,30.07,SSW,194,7.0,7.0,51,0.00,CLR,,0.00,WeatherDisplay:10.37,2014-01-19 16:03:00,
2014-01-19 11:08:00,47.2,30.0,30.07,SW,231,5.8,5.8,51,0.00,CLR,,0.00,WeatherDisplay:10.37,2014-01-19 16:08:00,
2014-01-19 11:13:00,47.5,29.3,30.07,WNW,284,9.2,9.2,49,0.00,CLR,,0.00,WeatherDisplay:10.37,2014-01-19 16:13:00,
2014-01-19 11:18:00,47.7,30.0,30.07,SW,222,10.4,10.4,50,0.00,CLR,,0.00,WeatherDisplay:10.37,2014-01-19 16:18:00,
2014-01-19 11:23:00,47.9,30.1,30.08,West,265,5.0,5.0,50,0.00,CLR,,0.00,WeatherDisplay:10.37,2014-01-19 16:23:00,
2014-01-19 11:28:00,48.2,29.9,30.08,NNW,344,6.0,6.0,49,0.00,CLR,,0.00,WeatherDisplay:10.37,2014-01-19 16:28:00,
2014-01-19 11:33:00,48.3,29.5,30.08,North,355,6.9,6.9,48,0.00,CLR,,0.00,WeatherDisplay:10.37,2014-01-19 16:33:00,
2014-01-19 11:38:00,48.2,29.9,30.08,NW,321,4.6,4.6,49,0.00,CLR,,0.00,WeatherDisplay:10.37,2014-01-19 16:38:00,
2014-01-19 11:43:00,48.4,29.6,30.08,NW,315,6.9,6.9,48,0.00,CLR,,0.00,WeatherDisplay:10.37,2014-01-19 16:43:00,
2014-01-19 11:48:00,48.5,29.7,30.08,NW,321,4.6,4.6,48,0.00,CLR,,0.00,WeatherDisplay:10.37,2014-01-19 16:48:00,
2014-01-19 11:53:00,48.5,29.7,30.07,NW,323,9.2,9.2,48,0.00,CLR,,0.00,WeatherDisplay:10.37,2014-01-19 16:53:00,
2014-01-19 11:58:00,48.4,29.6,30.08,North,9,8.1,8.1,48,0.00,CLR,,0.00,WeatherDisplay:10.37,2014-01-19 16:58:00,
2014-01-19 12:03:00,48.5,29.7,30.08,West,271,8.1,8.1,48,0.00,CLR,,0.00,WeatherDisplay:10.37,2014-01-19 17:03:00,
2014-01-19 12:08:00,48.4,29.6,30.08,SW,221,3.5,3.5,48,0.00,CLR,,0.00,WeatherDisplay:10.37,2014-01-19 17:08:00,
2014-01-19 12:13:00,48.3,29.5,30.08,NNE,24,5.8,5.8,48,0.00,FEW,,0.00,WeatherDisplay:10.37,2014-01-19 17:13:00,
2014-01-19 12:18:00,48.3,29.5,30.07,NNW,347,4.6,4.6,48,0.00,FEW,,0.00,WeatherDisplay:10.37,2014-01-19 17:18:00,
2014-01-19 12:23:00,48.3,30.0,30.07,NW,319,3.5,3.5,49,0.00,FEW,,0.00,WeatherDisplay:10.37,2014-01-19 17:23:00,
2014-01-19 12:28:00,48.4,29.6,30.07,SW,214,5.0,5.0,48,0.00,FEW,,0.00,WeatherDisplay:10.37,2014-01-19 17:28:00,
2014-01-19 12:33:00,48.4,29.6,30.06,NNW,337,8.1,8.1,48,0.00,FEW,,0.00,WeatherDisplay:10.37,2014-01-19 17:33:00,
2014-01-19 12:38:00,48.6,30.3,30.06,West,264,6.0,6.0,49,0.00,FEW,,0.00,WeatherDisplay:10.37,2014-01-19 17:38:00,
2014-01-19 12:43:00,48.5,29.2,30.06,West,273,18.4,18.4,47,0.00,FEW,,0.00,WeatherDisplay:10.37,2014-01-19 17:43:00,
2014-01-19 12:48:00,48.3,29.5,30.06,West,280,11.5,11.5,48,0.00,FEW,,0.00,WeatherDisplay:10.37,2014-01-19 17:48:00,
2014-01-19 12:53:00,48.4,29.6,30.06,WSW,250,14.0,14.0,48,0.00,FEW,,0.00,WeatherDisplay:10.37,2014-01-19 17:53:00,
2014-01-19 12:58:00,48.3,29.0,30.06,West,279,11.5,11.5,47,0.00,FEW,,0.00,WeatherDisplay:10.37,2014-01-19 17:58:00,
2014-01-19 13:03:00,48.3,29.0,30.06,NW,311,8.1,8.1,47,0.00,FEW,,0.00,WeatherDisplay:10.37,2014-01-19 18:03:00,
2014-01-19 13:08:00,48.3,29.0,30.05,WSW,244,13.8,13.8,47,0.00,FEW,,0.00,WeatherDisplay:10.37,2014-01-19 18:08:00,
2014-01-19 13:13:00,48.3,29.0,30.05,WNW,288,9.2,9.2,47,0.00,CLR,,0.00,WeatherDisplay:10.37,2014-01-19 18:13:00,
2014-01-19 13:18:00,48.4,29.1,30.04,NNW,344,4.6,4.6,47,0.00,CLR,,0.00,WeatherDisplay:10.37,2014-01-19 18:18:00,
2014-01-19 13:23:00,48.5,29.2,30.04,WNW,287,6.9,6.9,47,0.00,CLR,,0.00,WeatherDisplay:10.37,2014-01-19 18:23:00,
2014-01-19 13:28:00,48.7,28.8,30.04,NW,308,4.6,4.6,46,0.00,CLR,,0.00,WeatherDisplay:10.37,2014-01-19 18:28:00,
2014-01-19 13:33:00,48.8,28.9,30.04,NNW,341,6.9,6.9,46,0.00,CLR,,0.00,WeatherDisplay:10.37,2014-01-19 18:33:00,
2014-01-19 13:38:00,48.9,29.0,30.04,NW,308,10.0,10.0,46,0.00,CLR,,0.00,WeatherDisplay:10.37,2014-01-19 18:38:00,
2014-01-19 13:43:00,48.9,29.0,30.05,WNW,294,7.0,7.0,46,0.00,CLR,,0.00,WeatherDisplay:10.37,2014-01-19 18:43:00,
2014-01-19 13:48:00,48.9,28.5,30.05,NW,320,10.0,10.0,45,0.00,CLR,,0.00,WeatherDisplay:10.37,2014-01-19 18:48:00,
2014-01-19 13:53:00,49.1,29.2,30.04,NW,304,9.2,9.2,46,0.00,CLR,,0.00,WeatherDisplay:10.37,2014-01-19 18:53:00,
2014-01-19 13:58:00,49.2,28.7,30.05,SSW,211,6.9,6.9,45,0.00,CLR,,0.00,WeatherDisplay:10.37,2014-01-19 18:58:00,
2014-01-19 14:03:00,49.4,28.9,30.04,NW,322,3.5,3.5,45,0.00,CLR,,0.00,WeatherDisplay:10.37,2014-01-19 19:03:00,
2014-01-19 14:08:00,49.5,28.5,30.04,NW,306,8.1,8.1,44,0.00,CLR,,0.00,WeatherDisplay:10.37,2014-01-19 19:08:00,
2014-01-19 14:13:00,49.6,29.1,30.04,NW,309,4.0,4.0,45,0.00,CLR,,0.00,WeatherDisplay:10.37,2014-01-19 19:13:00,
2014-01-19 14:18:00,49.6,29.1,30.04,NW,313,4.6,4.6,45,0.00,CLR,,0.00,WeatherDisplay:10.37,2014-01-19 19:18:00,
2014-01-19 14:23:00,49.7,28.6,30.05,SW,232,11.0,11.0,44,0.00,CLR,,0.00,WeatherDisplay:10.37,2014-01-19 19:23:00,
2014-01-19 14:28:00,49.6,28.6,30.05,NW,307,13.8,13.8,44,0.00,CLR,,0.00,WeatherDisplay:10.37,2014-01-19 19:28:00,
2014-01-19 14:33:00,49.6,28.6,30.05,ENE,63,4.6,4.6,44,0.00,CLR,,0.00,WeatherDisplay:10.37,2014-01-19 19:33:00,
2014-01-19 14:38:00,49.8,29.3,30.05,WSW,240,9.0,9.0,45,0.00,CLR,,0.00,WeatherDisplay:10.37,2014-01-19 19:38:00,
2014-01-19 14:43:00,49.9,28.8,30.05,SW,216,7.0,7.0,44,0.00,CLR,,0.00,WeatherDisplay:10.37,2014-01-19 19:43:00,
2014-01-19 14:48:00,49.9,28.8,30.05,West,273,6.9,6.9,44,0.00,CLR,,0.00,WeatherDisplay:10.37,2014-01-19 19:48:00,
2014-01-19 14:53:00,49.9,28.3,30.05,NNE,16,5.8,5.8,43,0.00,CLR,,0.00,WeatherDisplay:10.37,2014-01-19 19:53:00,
2014-01-19 14:58:00,49.8,28.7,30.05,West,263,7.0,7.0,44,0.00,CLR,,0.00,WeatherDisplay:10.37,2014-01-19 19:58:00,
2014-01-19 15:03:00,49.9,29.4,30.05,NW,310,6.9,6.9,45,0.00,CLR,,0.00,WeatherDisplay:10.37,2014-01-19 20:03:00,
2014-01-19 15:08:00,50.0,29.5,30.05,WNW,296,4.0,4.0,45,0.00,CLR,,0.00,WeatherDisplay:10.37,2014-01-19 20:08:00,
2014-01-19 15:13:00,50.0,28.9,30.06,West,269,9.2,9.2,44,0.00,CLR,,0.00,WeatherDisplay:10.37,2014-01-19 20:13:00,
2014-01-19 15:18:00,49.9,28.3,30.06,SW,233,5.8,5.8,43,0.00,CLR,,0.00,WeatherDisplay:10.37,2014-01-19 20:18:00,
2014-01-19 15:23:00,49.9,29.4,30.05,WNW,296,6.0,6.0,45,0.00,CLR,,0.00,WeatherDisplay:10.37,2014-01-19 20:23:00,
2014-01-19 15:28:00,50.0,28.9,30.05,West,279,6.9,6.9,44,0.00,CLR,,0.00,WeatherDisplay:10.37,2014-01-19 20:28:00,
2014-01-19 15:33:00,50.0,28.9,30.06,ENE,63,3.5,3.5,44,0.00,CLR,,0.00,WeatherDisplay:10.37,2014-01-19 20:33:00,
2014-01-19 15:38:00,50.0,29.5,30.06,West,271,2.3,2.3,45,0.00,CLR,,0.00,WeatherDisplay:10.37,2014-01-19 20:38:00,
2014-01-19 15:43:00,50.1,29.0,30.05,North,5,4.6,4.6,44,0.00,CLR,,0.00,WeatherDisplay:10.37,2014-01-19 20:43:00,
2014-01-19 15:48:00,50.1,29.0,30.05,NNW,340,9.2,9.2,44,0.00,CLR,,0.00,WeatherDisplay:10.37,2014-01-19 20:48:00,
2014-01-19 15:53:00,50.1,29.0,30.05,West,259,6.9,6.9,44,0.00,CLR,,0.00,WeatherDisplay:10.37,2014-01-19 20:53:00,
2014-01-19 15:58:00,50.1,29.0,30.05,WSW,255,4.6,4.6,44,0.00,CLR,,0.00,WeatherDisplay:10.37,2014-01-19 20:58:00,
2014-01-19 16:03:00,50.1,29.0,30.06,NW,311,3.5,3.5,44,0.00,CLR,,0.00,WeatherDisplay:10.37,2014-01-19 21:03:00,
2014-01-19 16:08:00,50.2,29.1,30.06,WNW,302,9.2,9.2,44,0.00,CLR,,0.00,WeatherDisplay:10.37,2014-01-19 21:08:00,
2014-01-19 16:13:00,50.2,29.7,30.06,NW,306,1.2,1.2,45,0.00,CLR,,0.00,WeatherDisplay:10.37,2014-01-19 21:13:00,
2014-01-19 16:18:00,50.2,29.7,30.06,WNW,302,4.6,4.6,45,0.00,CLR,,0.00,WeatherDisplay:10.37,2014-01-19 21:18:00,
2014-01-19 16:23:00,50.1,29.6,30.06,West,261,13.8,13.8,45,0.00,CLR,,0.00,WeatherDisplay:10.37,2014-01-19 21:23:00,
2014-01-19 16:28:00,50.0,29.5,30.06,WNW,303,3.5,3.5,45,0.00,CLR,,0.00,WeatherDisplay:10.37,2014-01-19 21:28:00,
2014-01-19 16:33:00,49.9,29.4,30.06,North,355,6.0,6.0,45,0.00,CLR,,0.00,WeatherDisplay:10.37,2014-01-19 21:33:00,
2014-01-19 16:38:00,49.8,28.7,30.05,West,261,4.0,4.0,44,0.00,CLR,,0.00,WeatherDisplay:10.37,2014-01-19 21:38:00,
2014-01-19 16:43:00,49.7,28.6,30.06,WNW,294,3.5,0.0,44,0.00,CLR,,0.00,WeatherDisplay:10.37,2014-01-19 21:43:00,
2014-01-19 16:48:00,49.6,29.1,30.06,NNW,336,2.3,2.3,45,0.00,CLR,,0.00,WeatherDisplay:10.37,2014-01-19 21:48:00,
2014-01-19 16:53:00,49.4,29.5,30.06,West,274,3.5,3.5,46,0.00,CLR,,0.00,WeatherDisplay:10.37,2014-01-19 21:53:00,
2014-01-19 16:58:00,49.3,29.4,30.06,NW,304,3.5,3.5,46,0.00,CLR,,0.00,WeatherDisplay:10.37,2014-01-19 21:58:00,
2014-01-19 17:03:00,49.1,29.2,30.06,WSW,246,3.5,3.5,46,0.00,CLR,,0.00,WeatherDisplay:10.37,2014-01-19 22:03:00,
2014-01-19 17:08:00,49.0,28.6,30.06,WNW,290,4.6,4.6,45,0.00,CLR,,0.00,WeatherDisplay:10.37,2014-01-19 22:08:00,
2014-01-19 17:13:00,48.9,28.5,30.06,WNW,296,3.5,3.5,45,0.00,CLR,,0.00,WeatherDisplay:10.37,2014-01-19 22:13:00,
2014-01-19 17:18:00,48.7,29.4,30.06,NNW,328,3.5,3.5,47,0.00,CLR,,0.00,WeatherDisplay:10.37,2014-01-19 22:18:00,
2014-01-19 17:23:00,48.5,29.2,30.06,WNW,294,3.5,3.5,47,0.00,CLR,,0.00,WeatherDisplay:10.37,2014-01-19 22:23:00,
2014-01-19 17:28:00,48.3,29.0,30.06,NW,306,3.5,3.5,47,0.00,CLR,,0.00,WeatherDisplay:10.37,2014-01-19 22:28:00,
2014-01-19 17:33:00,48.1,28.8,30.06,West,281,5.8,5.8,47,0.00,CLR,,0.00,WeatherDisplay:10.37,2014-01-19 22:33:00,
2014-01-19 17:38:00,47.9,28.6,30.06,West,276,3.5,0.0,47,0.00,CLR,,0.00,WeatherDisplay:10.37,2014-01-19 22:38:00,
2014-01-19 17:43:00,47.7,28.4,30.07,West,277,1.2,0.0,47,0.00,CLR,,0.00,WeatherDisplay:10.37,2014-01-19 22:43:00,
2014-01-19 17:48:00,47.5,28.8,30.07,SSW,202,5.0,5.0,48,0.00,CLR,,0.00,WeatherDisplay:10.37,2014-01-19 22:48:00,
2014-01-19 17:53:00,47.2,28.5,30.07,WNW,298,1.2,1.2,48,0.00,CLR,,0.00,WeatherDisplay:10.37,2014-01-19 22:53:00,
2014-01-19 17:58:00,47.0,28.8,30.07,NW,316,2.3,2.3,49,0.00,CLR,,0.00,WeatherDisplay:10.37,2014-01-19 22:58:00,
2014-01-19 18:03:00,46.8,28.6,30.07,NW,304,2.3,2.3,49,0.00,CLR,,0.00,WeatherDisplay:10.37,2014-01-19 23:03:00,
2014-01-19 18:08:00,46.6,28.4,30.07,NW,304,1.2,1.2,49,0.00,CLR,,0.00,WeatherDisplay:10.37,2014-01-19 23:08:00,
2014-01-19 18:13:00,46.3,28.7,30.07,West,275,2.3,2.3,50,0.00,CLR,,0.00,WeatherDisplay:10.37,2014-01-19 23:13:00,
2014-01-19 18:18:00,46.1,28.5,30.07,West,275,1.0,0.0,50,0.00,CLR,,0.00,WeatherDisplay:10.37,2014-01-19 23:18:00,
2014-01-19 18:23:00,46.0,28.4,30.07,West,275,0.0,0.0,50,0.00,CLR,,0.00,WeatherDisplay:10.37,2014-01-19 23:23:00,
2014-01-19 18:28:00,45.8,28.2,30.07,West,275,1.2,0.0,50,0.00,CLR,,0.00,WeatherDisplay:10.37,2014-01-19 23:28:00,
2014-01-19 18:33:00,45.6,28.5,30.07,West,275,0.0,0.0,51,0.00,CLR,,0.00,WeatherDisplay:10.37,2014-01-19 23:33:00,
2014-01-19 18:38:00,45.4,28.3,30.07,West,275,0.0,0.0,51,0.00,CLR,,0.00,WeatherDisplay:10.37,2014-01-19 23:38:00,
2014-01-19 18:43:00,45.0,28.4,30.07,West,275,0.0,0.0,52,0.00,CLR,,0.00,WeatherDisplay:10.37,2014-01-19 23:43:00,
2014-01-19 18:48:00,44.7,28.1,30.07,West,275,0.0,0.0,52,0.00,CLR,,0.00,WeatherDisplay:10.37,2014-01-19 23:48:00,
2014-01-19 18:53:00,44.5,28.4,30.08,West,275,0.0,0.0,53,0.00,CLR,,0.00,WeatherDisplay:10.37,2014-01-19 23:53:00,
2014-01-19 18:58:00,44.2,28.1,30.08,West,276,0.0,0.2,53,0.00,CLR,,0.00,WeatherDisplay:10.37,2014-01-19 23:58:00,
2014-01-19 19:03:00,44.1,28.5,30.08,West,276,0.0,0.0,54,0.00,CLR,,0.00,WeatherDisplay:10.37,2014-01-20 00:03:00,
2014-01-19 19:08:00,43.9,28.3,30.08,West,276,0.0,0.0,54,0.00,CLR,,0.00,WeatherDisplay:10.37,2014-01-20 00:08:00,
2014-01-19 19:13:00,43.7,28.1,30.08,NW,312,2.3,2.3,54,0.00,CLR,,0.00,WeatherDisplay:10.37,2014-01-20 00:13:00,
2014-01-19 19:18:00,43.5,28.4,30.08,NW,312,0.0,0.0,55,0.00,CLR,,0.00,WeatherDisplay:10.37,2014-01-20 00:18:00,
2014-01-19 19:23:00,43.3,28.2,30.08,NW,309,2.0,2.0,55,0.00,CLR,,0.00,WeatherDisplay:10.37,2014-01-20 00:23:00,
2014-01-19 19:28:00,43.1,28.0,30.09,West,271,0.0,0.0,55,0.00,CLR,,0.00,WeatherDisplay:10.37,2014-01-20 00:28:00,
2014-01-19 19:33:00,43.0,28.4,30.09,West,271,0.0,0.0,56,0.00,CLR,,0.00,WeatherDisplay:10.37,2014-01-20 00:33:00,
2014-01-19 19:38:00,42.9,28.3,30.09,WNW,288,1.2,1.2,56,0.00,CLR,,0.00,WeatherDisplay:10.37,2014-01-20 00:38:00,
2014-01-19 19:43:00,42.8,28.2,30.09,WNW,288,0.0,0.0,56,0.00,CLR,,0.00,WeatherDisplay:10.37,2014-01-20 00:43:00,
2014-01-19 19:48:00,42.6,28.0,30.09,WSW,257,1.2,0.0,56,0.00,CLR,,0.00,WeatherDisplay:10.37,2014-01-20 00:48:00,
2014-01-19 19:53:00,42.5,27.9,30.08,WSW,257,0.0,0.0,56,0.00,CLR,,0.00,WeatherDisplay:10.37,2014-01-20 00:53:00,
2014-01-19 19:58:00,42.4,28.2,30.08,WSW,257,0.0,0.0,57,0.00,CLR,,0.00,WeatherDisplay:10.37,2014-01-20 00:58:00,
2014-01-19 20:03:00,42.3,27.7,30.08,WSW,257,0.0,0.0,56,0.00,CLR,,0.00,WeatherDisplay:10.37,2014-01-20 01:03:00,
2014-01-19 20:08:00,42.3,27.7,30.08,WSW,257,0.0,0.0,56,0.00,CLR,,0.00,WeatherDisplay:10.37,2014-01-20 01:08:00,
2014-01-19 20:13:00,42.2,28.0,30.07,WSW,257,0.0,0.0,57,0.00,CLR,,0.00,WeatherDisplay:10.37,2014-01-20 01:13:00,
2014-01-19 20:18:00,42.2,28.0,30.07,WSW,257,0.0,0.0,57,0.00,CLR,,0.00,WeatherDisplay:10.37,2014-01-20 01:18:00,
2014-01-19 20:23:00,42.0,27.9,30.07,WSW,257,0.0,0.0,57,0.00,CLR,,0.00,WeatherDisplay:10.37,2014-01-20 01:23:00,
2014-01-19 20:28:00,41.9,28.2,30.07,WSW,257,0.0,0.0,58,0.00,CLR,,0.00,WeatherDisplay:10.37,2014-01-20 01:28:00,
2014-01-19 20:33:00,41.6,28.3,30.06,WSW,257,1.2,0.0,59,0.00,CLR,,0.00,WeatherDisplay:10.37,2014-01-20 01:33:00,
2014-01-19 20:38:00,41.2,28.4,30.06,WSW,257,0.0,0.2,60,0.00,CLR,,0.00,WeatherDisplay:10.37,2014-01-20 01:38:00,
2014-01-19 20:43:00,40.6,28.2,30.06,WSW,241,1.2,0.0,61,0.00,CLR,,0.00,WeatherDisplay:10.37,2014-01-20 01:43:00,
2014-01-19 20:48:00,40.4,28.0,30.06,WSW,241,0.0,0.0,61,0.00,CLR,,0.00,WeatherDisplay:10.37,2014-01-20 01:48:00,
2014-01-19 20:53:00,40.2,28.2,30.06,WSW,241,1.2,0.0,62,0.00,CLR,,0.00,WeatherDisplay:10.37,2014-01-20 01:53:00,
2014-01-19 20:58:00,40.1,28.1,30.06,WSW,241,0.0,0.0,62,0.00,CLR,,0.00,WeatherDisplay:10.37,2014-01-20 01:58:00,
2014-01-19 21:03:00,40.1,28.1,30.06,WSW,241,0.0,0.0,62,0.00,CLR,,0.00,WeatherDisplay:10.37,2014-01-20 02:03:00,
2014-01-19 21:08:00,40.1,28.5,30.07,WSW,241,0.0,0.0,63,0.00,CLR,,0.00,WeatherDisplay:10.37,2014-01-20 02:08:00,
2014-01-19 21:13:00,39.9,28.3,30.07,WSW,241,0.0,0.0,63,0.00,CLR,,0.00,WeatherDisplay:10.37,2014-01-20 02:13:00,
2014-01-19 21:18:00,39.8,28.2,30.07,WSW,241,0.0,0.0,63,0.00,CLR,,0.00,WeatherDisplay:10.37,2014-01-20 02:18:00,
2014-01-19 21:23:00,39.6,28.8,30.07,WSW,241,0.0,0.0,65,0.00,CLR,,0.00,WeatherDisplay:10.37,2014-01-20 02:23:00,
2014-01-19 21:28:00,39.4,28.2,30.06,WSW,241,0.0,0.0,64,0.00,CLR,,0.00,WeatherDisplay:10.37,2014-01-20 02:28:00,
2014-01-19 21:33:00,39.2,27.7,30.06,WSW,241,0.0,0.0,63,0.00,CLR,,0.00,WeatherDisplay:10.37,2014-01-20 02:33:00,
2014-01-19 21:38:00,39.1,27.6,30.06,WSW,241,0.0,0.0,63,0.00,CLR,,0.00,WeatherDisplay:10.37,2014-01-20 02:38:00,
2014-01-19 21:43:00,39.1,27.9,30.06,WSW,241,1.2,1.2,64,0.00,CLR,,0.00,WeatherDisplay:10.37,2014-01-20 02:43:00,
2014-01-19 21:48:00,38.9,27.8,30.06,WSW,241,0.0,0.0,64,0.00,CLR,,0.00,WeatherDisplay:10.37,2014-01-20 02:48:00,
2014-01-19 21:53:00,38.9,27.8,30.07,WSW,241,0.0,0.0,64,0.00,CLR,,0.00,WeatherDisplay:10.37,2014-01-20 02:53:00,
2014-01-19 21:58:00,38.8,27.7,30.07,WSW,241,0.0,0.0,64,0.00,CLR,,0.00,WeatherDisplay:10.37,2014-01-20 02:58:00,
2014-01-19 22:03:00,38.7,27.6,30.07,WSW,241,0.0,0.0,64,0.00,CLR,,0.00,WeatherDisplay:10.37,2014-01-20 03:03:00,
2014-01-19 22:08:00,38.7,27.6,30.07,WSW,241,0.0,0.0,64,0.00,CLR,,0.00,WeatherDisplay:10.37,2014-01-20 03:08:00,
2014-01-19 22:13:00,38.6,27.5,30.07,WSW,241,0.0,0.0,64,0.00,CLR,,0.00,WeatherDisplay:10.37,2014-01-20 03:13:00,
2014-01-19 22:18:00,38.6,27.5,30.07,WSW,241,0.0,0.0,64,0.00,CLR,,0.00,WeatherDisplay:10.37,2014-01-20 03:18:00,
2014-01-19 22:23:00,38.5,27.7,30.07,WSW,241,0.0,0.0,65,0.00,CLR,,0.00,WeatherDisplay:10.37,2014-01-20 03:23:00,
2014-01-19 22:28:00,38.4,27.7,30.07,WSW,241,0.0,0.0,65,0.00,CLR,,0.00,WeatherDisplay:10.37,2014-01-20 03:28:00,
2014-01-19 22:33:00,38.2,27.8,30.07,WSW,241,0.0,0.0,66,0.00,CLR,,0.00,WeatherDisplay:10.37,2014-01-20 03:33:00,
2014-01-19 22:38:00,38.1,27.7,30.07,WSW,241,0.0,0.0,66,0.00,CLR,,0.00,WeatherDisplay:10.37,2014-01-20 03:38:00,
2014-01-19 22:43:00,37.9,27.9,30.07,WSW,241,0.0,0.0,67,0.00,CLR,,0.00,WeatherDisplay:10.37,2014-01-20 03:43:00,
2014-01-19 22:48:00,37.8,28.2,30.07,WSW,241,0.0,0.0,68,0.00,CLR,,0.00,WeatherDisplay:10.37,2014-01-20 03:48:00,
2014-01-19 22:53:00,37.5,27.9,30.06,WSW,241,0.0,0.0,68,0.00,CLR,,0.00,WeatherDisplay:10.37,2014-01-20 03:53:00,
2014-01-19 22:58:00,37.3,28.1,30.06,WSW,241,0.0,0.0,69,0.00,CLR,,0.00,WeatherDisplay:10.37,2014-01-20 03:58:00,
2014-01-19 23:03:00,37.1,27.9,30.06,WSW,241,0.0,0.0,69,0.00,CLR,,0.00,WeatherDisplay:10.37,2014-01-20 04:03:00,
2014-01-19 23:08:00,36.9,27.7,30.06,WSW,241,0.0,0.0,69,0.00,CLR,,0.00,WeatherDisplay:10.37,2014-01-20 04:08:00,
2014-01-19 23:13:00,36.6,27.4,30.06,WSW,241,0.0,0.0,69,0.00,CLR,,0.00,WeatherDisplay:10.37,2014-01-20 04:13:00,
2014-01-19 23:18:00,36.5,27.3,30.05,WSW,241,0.0,0.0,69,0.00,CLR,,0.00,WeatherDisplay:10.37,2014-01-20 04:18:00,
2014-01-19 23:23:00,36.4,27.5,30.05,WSW,241,0.0,0.0,70,0.00,CLR,,0.00,WeatherDisplay:10.37,2014-01-20 04:23:00,
2014-01-19 23:28:00,36.3,27.4,30.05,WSW,241,0.0,0.0,70,0.00,CLR,,0.00,WeatherDisplay:10.37,2014-01-20 04:28:00,
2014-01-19 23:33:00,36.2,27.7,30.05,WSW,241,0.0,0.0,71,0.00,CLR,,0.00,WeatherDisplay:10.37,2014-01-20 04:33:00,
2014-01-19 23:38:00,36.0,27.8,30.05,WSW,241,0.0,0.0,72,0.00,CLR,,0.00,WeatherDisplay:10.37,2014-01-20 04:38:00,
2014-01-19 23:43:00,35.8,28.0,30.05,WSW,241,0.0,0.0,73,0.00,CLR,,0.00,WeatherDisplay:10.37,2014-01-20 04:43:00,
2014-01-19 23:48:00,35.6,27.5,30.05,WSW,241,0.0,0.0,72,0.00,CLR,,0.00,WeatherDisplay:10.37,2014-01-20 04:48:00,
2014-01-19 23:53:00,35.3,27.5,30.06,WSW,241,1.2,0.0,73,0.00,CLR,,0.00,WeatherDisplay:10.37,2014-01-20 04:53:00,
2014-01-19 23:58:00,35.0,27.2,30.06,WSW,241,0.0,0.0,73,0.00,CLR,,0.00,WeatherDisplay:10.37,2014-01-20 04:58:00,